Newport, AR

12:39 AM CDT on April 24, 2018 (GMT -0500)
Newport

Weather History for KM19 - June, 2013

Change the Weather History Date:

Wednesday, June 12, 2013

  Actual Average (KBVX) Record (KBVX)
Temperature  
Mean Temperature 84 °F -  
Max Temperature 95 °F 88 °F 100 °F (1953)
Min Temperature 72 °F 64 °F 49 °F (1980)
Cooling Degree Days 18    
Growing Degree Days 34 (Base 50)    
Moisture  
Dew Point 72 °F    
Average Humidity 68    
Maximum Humidity 100    
Minimum Humidity 43    
Precipitation  
Precipitation 0.00 in - - ()
Sea Level Pressure  
Sea Level Pressure 29.96 in    
Wind  
Wind Speed 10 mph (SSW)    
Max Wind Speed 22 mph    
Max Gust Speed 28 mph    
Visibility 10 miles    
Events      
Averages and records for this station are not official NWS values.
T = Trace of Precipitation, MM = Missing Value Source: NWS Daily Summary

Daily Weather History Graph

Daily Weather History Graph

Search for Another Location

Airport or City:

Astronomy

Jun. 12, 2013 Rise Set
Actual Time 5:48 AM CDT 8:21 PM CDT
Civil Twilight 5:18 AM CDT 8:51 PM CDT
Nautical Twilight 4:41 AM CDT 9:28 PM CDT
Astronomical Twilight 4:00 AM CDT 10:09 PM CDT
Moon 9:22 AM CDT (6/12) 11:03 PM CDT (6/12)
Length of Visible Light 15h 32m
Length of Day
14h 32m
Waxing Crescent, 14% of the Moon is Illuminated
Jun 12
Waxing Crescent
Jun 16
First Quarter
Jun 23
Full
Jun 29
Last Quarter
Jul 8
New

Hourly Weather History & Observations

Time (CDT) Temp. Heat Index Dew Point Humidity Pressure Visibility Wind Dir Wind Speed Gust Speed Precip Events Conditions
12:56 AM 77.0 °F - 72.9 °F 87% 29.98 in 10.0 mi SSW 6.9 mph - N/A   Clear
1:56 AM 75.9 °F - 72.9 °F 90% 29.96 in 10.0 mi South 6.9 mph - N/A   Clear
2:56 AM 74.8 °F - 72.9 °F 94% 29.96 in 10.0 mi South 4.6 mph - N/A   Clear
3:56 AM 74.8 °F - 73.9 °F 97% 29.96 in 10.0 mi South 4.6 mph - N/A   Clear
4:56 AM 73.9 °F - 73.9 °F 100% 29.97 in 10.0 mi South 4.6 mph - N/A   Clear
5:28 AM 73.4 °F - 73.4 °F 100% 29.99 in 10.0 mi SSE 3.5 mph - N/A   Partly Cloudy
5:56 AM 72.9 °F - 72.9 °F 100% 29.99 in 10.0 mi SSE 3.5 mph - N/A   Clear
6:56 AM 75.9 °F - 74.8 °F 96% 30.01 in 10.0 mi South 4.6 mph - N/A   Clear
7:56 AM 79.9 °F - 74.8 °F 85% 30.01 in 10.0 mi SSW 10.4 mph - N/A   Clear
8:56 AM 84.9 °F 90.7 °F 72.0 °F 65% 30.03 in 10.0 mi SW 12.7 mph - N/A   Clear
9:56 AM 88.9 °F 95.6 °F 72.0 °F 57% 30.03 in 10.0 mi WSW 13.8 mph - N/A   Clear
10:56 AM 90.9 °F 98.3 °F 72.0 °F 54% 30.02 in 10.0 mi SW 16.1 mph 23.0 mph N/A   Clear
11:56 AM 92.8 °F 99.7 °F 70.9 °F 49% 30.02 in 10.0 mi SW 19.6 mph - N/A   Clear
12:56 PM 93.9 °F 100.8 °F 70.9 °F 47% 30.00 in 10.0 mi SW 19.6 mph 25.3 mph N/A   Clear
1:56 PM 95.0 °F 101.9 °F 70.9 °F 45% 29.98 in 10.0 mi SW 18.4 mph - N/A   Clear
2:56 PM 95.0 °F 103.2 °F 72.0 °F 47% 29.95 in 10.0 mi SW 17.3 mph - N/A   Clear
3:56 PM 95.9 °F 102.5 °F 70.0 °F 43% 29.93 in 10.0 mi SSW 21.9 mph 27.6 mph N/A   Clear
4:56 PM 95.0 °F 103.2 °F 72.0 °F 47% 29.91 in 10.0 mi SSW 20.7 mph 24.2 mph N/A   Clear
5:56 PM 93.9 °F 100.3 °F 70.0 °F 46% 29.89 in 10.0 mi SSW 19.6 mph 26.5 mph N/A   Clear
6:56 PM 92.8 °F 97.6 °F 68.9 °F 45% 29.89 in 10.0 mi SW 18.4 mph - N/A   Clear
7:56 PM 88.9 °F 94.7 °F 70.9 °F 55% 29.90 in 10.0 mi SSW 15.0 mph - N/A   Clear
8:56 PM 86.0 °F 90.7 °F 70.0 °F 59% 29.90 in 10.0 mi SSW 15.0 mph - N/A   Clear
9:56 PM 83.8 °F 88.6 °F 70.9 °F 65% 29.91 in 10.0 mi SSW 15.0 mph - N/A   Clear
10:56 PM 82.9 °F 87.5 °F 70.9 °F 67% 29.91 in 10.0 mi SW 13.8 mph - N/A   Clear
11:56 PM 82.9 °F 88.0 °F 72.0 °F 69% 29.91 in 10.0 mi SW 13.8 mph - N/A   Clear